Location: Birkengreith
(47.0333°N, 15.5667°E)
Time: 20:16:54
(UTC+00:00)

Daily predictions for brighter satellites

Satellite Brightness Start Highest point End
(mag) Time Altitude Azimuth Time Altitude Azimuth Time Altitude Azimuth
Cosmos 2263 4.2 17:57:10 10° NNW 18:02:49 81° ENE 18:08:26 10° SSE
Cosmos 1943 3.3 17:58:23 10° S 18:03:55 59° ESE 18:09:31 10° NNE
YAOGAN 1 4.0 17:59:50 10° S 18:03:56 42° W 18:08:04 10° NNW
SeaSat 1 2.5 18:00:49 10° NNE 18:05:47 90° E 18:10:44 10° SSW
Ariane Rocket 3.0 18:02:31 10° SSE 18:07:33 69° ENE 18:12:36 10° N
Cosmos 1626 Rocket 4.5 18:03:49 10° NNW 18:08:06 54° W 18:12:18 10° S
MONITOR-E 4.5 18:06:30 10° SE 18:08:56 34° ENE 18:11:24 10° N
HJ-1C 3.7 18:06:35 10° S 18:09:56 70° WSW 18:13:19 10° NNW
IRS-1A Rocket 4.4 18:05:26 10° SSE 18:11:07 73° ENE 18:16:58 10° NNW
Cosmos 1470 3.9 18:08:25 10° SSW 18:12:12 49° WNW 18:16:02 10° N
Cosmos 1656 Rocket 3.8 18:06:37 10° NNW 18:12:17 65° ENE 18:17:49 10° SE
Cosmos 1953 2.2 18:08:20 10° S 18:12:18 78° E 18:16:19 10° NNE
IRIDIUM 104 4.4 18:07:08 10° N 18:12:20 64° E 18:17:30 10° SSE
STARLINK-1228 3.9 18:09:51 10° NW 18:12:33 33° NNE 18:15:15 10° E
Aureole 2 Rocket 4.1 18:11:10 10° NW 18:14:20 34° WSW 18:17:25 10° S
Cosmos 2184 Rocket 4.1 18:08:43 10° N 18:14:59 63° ENE 18:21:08 10° SSE
COSMOS 2455 3.7 18:11:05 10° NNW 18:16:35 35° NE 18:22:01 10° ESE
Cosmos 1726 2.1 18:13:24 10° S 18:17:05 63° E 18:20:48 10° NNE
Meteor 2-10 4.2 18:13:46 10° S 18:19:11 69° E 18:24:50 10° NNE
Cosmos 1602 Rocket 4.5 18:15:18 10° NNW 18:19:38 53° W 18:23:53 10° S
CZ-2C R/B 3.7 18:16:19 10° NE 18:20:20 22° E 18:24:21 10° SE
Cosmos 2058 Rocket 4.1 18:17:34 10° SE 18:21:18 26° E 18:25:03 10° NNE
IRIDIUM 114 4.3 18:16:16 10° N 18:21:31 77° E 18:26:43 10° S
Cosmos 614 Rocket 4.3 18:18:23 10° S 18:23:19 44° ESE 18:28:15 10° NE
ARGOS 3.1 18:21:14 10° SSE 18:26:35 74° ENE 18:31:59 10° N
Cosmos 1726 Rocket 3.8 18:25:04 10° SSE 18:29:17 46° E 18:33:33 10° NNE
FREGAT/IRIS 2.3 18:27:17 10° SSE 18:30:01 87° W 18:32:45 10° NNW
IRIDIUM 103 4.4 18:25:27 10° N 18:30:42 89° W 18:35:56 10° S
SL-24 R/B 4.4 18:29:22 10° NNE 18:33:08 36° E 18:36:36 10° SSE
Resurs 01 Rocket 2.7 18:30:56 13° ESE 18:34:09 28° ENE 18:37:56 10° N
Nadezhda 1 Rocket 4.1 18:29:40 10° S 18:35:53 57° E 18:42:05 10° NNE
Cosmos 1825 Rocket 3.5 18:31:40 10° N 18:36:06 89° WSW 18:40:26 10° S
ERBS 4.4 18:34:06 10° NNW 18:36:40 20° NNE 18:39:14 10° ENE
Cosmos 2154 Rocket 4.1 18:31:17 10° N 18:37:36 61° ENE 18:43:50 10° SSE
USA 186 2.0 18:35:06 10° S 18:38:25 71° WSW 18:41:37 10° NNW
APEX 4.4 18:31:47 10° NNW 18:38:25 71° ENE 18:43:26 12° SE
Cosmos 921 Rocket 3.6 18:38:19 10° N 18:42:14 37° ENE 18:44:55 18° SE
SL-24 R/B - RUBIN 2 4.4 18:38:53 10° SSW 18:44:16 53° ESE 18:50:21 10° NE
Cosmos 407 Rocket 3.5 18:39:34 10° S 18:44:34 55° ESE 18:49:35 10° NNE
STARLINK-1233 3.7 18:42:51 10° NW 18:45:52 41° NNE 18:47:47 19° E
STARLINK-1234 3.4 18:42:55 10° NW 18:45:55 48° NNE 18:47:39 21° E
STARLINK-1212 3.7 18:43:19 10° NW 18:46:20 41° NNE 18:48:13 19° E
STARLINK-1105 3.7 18:43:46 10° NW 18:46:47 42° NNE 18:48:40 19° E
STARLINK-1209 3.3 18:44:05 10° NW 18:47:04 51° NNE 18:48:45 22° E
STARLINK-1206 3.7 18:44:15 10° NW 18:47:14 41° NNE 18:49:04 20° E
STARLINK-1247 3.7 18:44:41 10° NW 18:47:41 42° NNE 18:49:30 20° E
Cosmos 2228 2.9 18:43:42 10° S 18:47:59 86° E 18:52:22 10° N
STARLINK-1227 3.7 18:45:06 10° NW 18:48:07 42° NNE 18:49:57 20° E
STARLINK-1218 3.7 18:45:36 10° NW 18:48:36 42° NNE 18:50:22 20° E
STARLINK-1226 3.7 18:46:02 10° NW 18:49:03 42° NNE 18:50:49 21° E
STARLINK-1254 3.7 18:46:28 10° NW 18:49:29 43° NNE 18:51:15 21° E
SPOT 3 Rocket 3.5 18:44:27 10° SSE 18:49:38 71° ENE 18:54:50 10° N
Cosmos 1758 Rocket 4.3 18:45:35 10° NNW 18:49:49 54° W 18:54:00 10° S
STARLINK-1215 3.6 18:46:57 10° NW 18:49:57 43° NNE 18:51:40 21° E
STARLINK-1231 3.6 18:47:24 10° NW 18:50:24 43° NNE 18:52:06 21° E
STARLINK-1232 3.6 18:48:18 10° NW 18:51:19 43° NNE 18:52:59 22° E
STARLINK-1217 3.6 18:48:44 10° NW 18:51:46 44° NNE 18:53:25 22° E
STARLINK-1208 3.6 18:49:09 10° NW 18:52:12 44° NNE 18:53:51 22° E
Cosmos 1461 3.1 18:47:55 10° NNW 18:52:27 70° NE 18:55:36 20° SE
STARLINK-1229 3.6 18:49:38 10° NW 18:52:39 44° NNE 18:54:16 23° E
Aureole 1 Rocket 4.1 18:45:34 10° S 18:53:07 72° ESE 18:59:00 10° NNE
STARLINK-1271 3.6 18:50:05 10° NW 18:53:07 44° NNE 18:54:43 23° E
STARLINK-1270 3.6 18:50:33 10° NW 18:53:34 45° NNE 18:55:09 23° E
STARLINK-1154 3.6 18:51:00 10° NW 18:54:01 45° NNE 18:55:34 24° E
STARLINK-1197 3.5 18:51:54 10° NW 18:54:56 45° NNE 18:56:26 24° E
STARLINK-1189 3.5 18:52:21 10° NW 18:55:22 46° NNE 18:56:52 24° E
STARLINK-1198 3.5 18:52:48 10° NW 18:55:50 46° NNE 18:57:18 25° E
SJ-6B 3.3 18:52:09 10° S 18:56:15 66° WSW 19:00:23 10° NNW
STARLINK-1188 3.5 18:53:14 10° NW 18:56:17 46° NNE 18:57:44 25° E
STARLINK-1235 3.3 18:53:52 10° NW 18:56:59 55° NNE 18:58:23 28° E
STARLINK-1187 3.4 18:54:19 10° NW 18:57:26 51° NNE 18:58:50 27° E
Cosmos 1953 Rocket 3.7 18:53:17 10° NNW 18:57:47 79° W 19:02:16 10° S
STARLINK-29 3.5 18:54:53 10° SSW 18:57:52 37° SE 18:58:47 30° ESE
STARLINK-1199 3.5 18:55:10 10° NW 18:58:14 47° NNE 18:59:39 26° E
STARLINK-1191 3.5 18:55:38 10° NW 18:58:42 48° NNE 19:00:06 27° E
Cosmos 1606 Rocket 3.9 18:54:36 10° SSW 18:59:02 70° W 19:03:31 10° N
STARLINK-1210 3.5 18:56:05 10° NW 18:59:09 48° NNE 19:00:31 27° E
STARLINK-1221 3.5 18:56:32 10° NW 18:59:37 48° NNE 19:00:58 27° E
ATLAS 5 CENTAUR R/B 1.5 18:55:45 10° SSW 18:59:46 55° ESE 19:04:18 10° NE
STARLINK-60 2.9 18:56:33 10° SW 18:59:49 81° SSE 19:02:13 17° ENE
STARLINK-1219 3.5 18:56:59 10° NW 19:00:03 49° NNE 19:01:23 28° E
STARLINK-1222 3.4 18:57:26 10° NW 19:00:30 49° NNE 19:01:49 28° E
STARLINK-1211 3.4 18:57:54 10° NW 19:00:57 49° NNE 19:02:15 29° E
STARLINK-1214 3.4 18:58:20 10° NW 19:01:25 49° NNE 19:02:41 29° E
STARLINK-1245 3.4 18:58:50 10° NW 19:01:53 49° NNE 19:03:07 29° E
STARLINK-1238 3.4 18:59:14 10° NW 19:02:19 50° NNE 19:03:34 30° E
STARLINK-1205 3.4 19:00:11 10° NW 19:03:15 50° NNE 19:04:25 31° E
STARLINK-1204 3.4 19:00:37 10° NW 19:03:41 51° NNE 19:04:50 31° E
Terra 4.0 19:03:35 10° ENE 19:04:43 11° NE 19:06:02 10° NE
Cosmos 1818 4.2 18:59:36 10° SW 19:04:58 60° NW 19:10:23 10° NNE
STARLINK-1237 4.4 19:04:11 10° WNW 19:08:10 43° NNE 19:10:31 21° ENE
Cosmos 1954 Rocket 4.3 19:03:49 10° S 19:08:47 44° ESE 19:13:44 10° NNE
Cosmos 1023 Rocket 4.4 19:04:57 10° S 19:10:04 70° ESE 19:15:12 10° NNE
Abrixas rocket 1.8 19:07:51 10° WNW 19:10:50 87° N 19:11:30 50° E
STARLINK-1202 4.4 19:09:11 10° WNW 19:13:10 45° NNE 19:15:18 24° ENE
Cosmos 2058 4.0 19:10:37 10° NNE 19:14:08 27° ENE 19:14:34 26° E
NOSS 3-4 (A) 4.0 19:07:38 10° NW 19:14:36 71° SW 19:20:34 18° SSE
NOSS 3-4 (C) 4.0 19:07:44 10° NW 19:14:43 72° SW 19:20:39 18° SSE
RESURS DK-1 4.4 19:13:50 10° N 19:16:18 15° NE 19:17:24 14° ENE
Cosmos 1300 2.8 19:17:23 33° SSE 19:18:46 52° E 19:22:30 10° NNE
FALCON 9 DEB 3.2 19:16:22 10° SW 19:19:47 54° SE 19:20:16 49° ESE
SL-4 R/B 2.0 19:17:21 10° W 19:20:42 58° NNW 19:22:39 23° NE
Cosmos 1076 Rocket 4.2 19:17:46 10° N 19:21:40 33° ENE 19:22:14 32° E
MOS 1 Rocket 3.6 19:17:16 10° NNE 19:22:42 81° ESE 19:28:09 10° S
STARLINK-1246 4.3 19:19:09 10° WNW 19:23:12 48° NNE 19:24:53 30° ENE
Cosmos 1340 Rocket 3.0 19:19:24 10° SSW 19:23:26 72° WNW 19:27:29 10° N
STARLINK-1203 4.2 19:19:47 10° WNW 19:23:54 51° NNE 19:25:34 31° ENE
STARLINK-1201 3.0 19:21:43 10° WNW 19:24:59 68° NNE 19:25:27 57° ENE
CZ-2C R/B 4.2 19:20:21 10° N 19:25:01 65° WNW 19:29:36 10° SSW
H-2A R/B 3.8 19:21:17 10° SSW 19:25:48 30° W 19:30:15 10° NW
STARLINK-67 3.3 19:25:02 10° WNW 19:27:10 41° WSW 19:27:10 41° WSW
STARLINK-1224 4.2 19:24:07 10° WNW 19:28:10 50° NNE 19:29:39 33° ENE
Cosmos 1763 Rocket 4.3 19:24:25 10° N 19:29:07 33° ENE 19:30:27 29° E
STARLINK-1225 4.1 19:29:07 10° WNW 19:33:11 52° NNE 19:34:27 37° ENE
MetOp-B 4.1 19:33:01 33° SE 19:35:24 69° ENE 19:40:45 10° N
SAR-Lupe-2 3.6 19:33:28 10° NNE 19:36:47 57° E 19:36:47 57° E
COSMOS 2406 4.5 19:39:02 23° ENE 19:39:02 23° ENE 19:42:01 10° NE
STARLINK-1230 4.0 19:34:06 10° WNW 19:38:11 55° NNE 19:39:14 42° ENE
STARLINK-52 3.6 19:35:09 10° SW 19:37:28 44° SW 19:37:28 44° SW
USA 234 3.3 19:35:00 10° ENE 19:41:21 50° SE 19:47:40 10° SSW
STARLINK-1243 3.9 19:39:05 10° WNW 19:43:11 58° NNE 19:44:01 47° ENE
Iridium 4 Rocket 3.2 19:40:57 10° N 19:44:57 49° ENE 19:44:57 49° ENE
ATLAS 2AS CENTAUR R/B 3.7 19:39:38 10° NW 19:46:39 44° WSW 19:51:22 19° S
STARLINK-1228 4.0 19:44:51 10° WNW 19:46:55 37° W 19:46:55 37° W
STARLINK-1236 3.8 19:44:03 10° WNW 19:48:10 60° NNE 19:48:47 53° ENE
STPSAT 2 (USA 217) 4.5 19:48:49 60° SE 19:49:11 63° ESE 19:53:38 10° NNE
Cosmos 1140 Rocket 4.1 19:47:19 10° SW 19:52:24 55° WNW 19:57:30 10° NNE
CZ-4C R/B 4.0 19:46:35 10° NNW 19:52:37 33° NNE 19:56:49 20° ENE
Cosmos 2341 Rocket 4.4 19:49:04 10° NNW 19:55:23 66° W 19:59:56 20° S
Meteor 2-1 Rocket 4.3 19:56:24 44° SSE 19:58:07 62° E 20:03:59 10° NNE
STARLINK-1269 3.7 19:54:00 10° WNW 19:58:08 67° NNE 19:58:20 66° NE
Spot 2 Rocket 3.4 19:56:54 48° SSE 19:58:24 88° WSW 20:03:33 10° NNW
Cosmos 1850 Rocket 4.3 19:59:22 47° E 19:59:22 47° E 20:03:47 10° NNE
Landsat 7 3.7 19:58:57 62° ESE 19:59:34 72° ENE 20:04:20 10° N
CZ-2C R/B 3.3 19:55:55 10° N 20:00:56 53° WNW 20:05:59 10° SW
COSMOS 2455 3.3 19:56:56 10° NW 20:02:47 54° WSW 20:05:11 34° S
Cosmos 1697 Rocket 3.5 19:57:55 10° NNW 20:03:06 35° NE 20:04:03 33° ENE
STARLINK-1200 3.6 19:58:58 10° WNW 20:03:07 71° NNE 20:03:07 71° NNE
Cosmos 1408 4.1 20:00:14 10° N 20:02:17 27° NNE 20:02:17 27° NNE
CARTOSAT-1 4.2 20:06:16 43° NE 20:06:16 43° NE 20:09:54 10° N
Cosmos 841 Rocket 4.2 20:01:32 10° N 20:06:28 38° ENE 20:06:47 38° ENE
IGS 5A 3.4 20:06:53 78° NNE 20:06:53 78° NNE 20:10:52 10° N
Iridium 2 4.0 20:07:49 61° W 20:07:56 61° W 20:11:44 10° N
STARLINK-1192 3.7 20:03:57 10° WNW 20:07:54 73° N 20:07:54 73° N
Cosmos 2218 Rocket 4.0 20:03:34 10° N 20:09:47 80° W 20:12:18 39° S
Resurs 01 Rocket 3.1 20:08:30 22° SW 20:10:33 33° W 20:14:34 10° NNW
STARLINK-1244 3.8 20:08:55 10° WNW 20:12:41 70° NW 20:12:41 70° NW
ERBS 3.7 20:10:06 10° NW 20:12:22 38° NW 20:12:22 38° NW
Okean 3 Rocket 4.4 20:09:19 10° N 20:12:40 38° NE 20:12:40 38° NE
BREEZE-M DEB (TANK) 4.1 20:13:56 10° WNW 20:15:11 20° WNW 20:15:11 20° WNW
ATLAS CENTAUR R/B 3.0 20:14:03 10° NNW 20:16:45 23° NNE 20:16:45 23° NNE
Cosmos 468 Rocket 3.8 20:12:22 10° NNW 20:17:34 87° WSW 20:18:01 75° S
STARLINK-1138 3.9 20:13:55 10° WNW 20:17:28 64° NW 20:17:28 64° NW
SL-16 R/B 4.5 20:17:38 10° N 20:20:10 13° NE 20:22:22 11° ENE
Cosmos 1570 Rocket 4.1 20:16:30 10° NNW 20:21:49 60° ENE 20:21:55 60° ENE
Meteor 2-12 Rocket 4.3 20:15:58 10° N 20:22:06 85° W 20:23:32 55° S
STARLINK-1143 4.1 20:18:53 10° WNW 20:22:14 57° WNW 20:22:14 57° WNW
Cosmos 2181 Rocket 4.5 20:20:34 16° SSW 20:25:36 58° WNW 20:31:43 10° N
ERS-1 Rocket 2.8 20:27:20 86° E 20:27:22 86° ENE 20:32:25 10° NNW
Cosmos 1455 4.1 20:30:11 24° NNE 20:30:11 24° NNE 20:31:49 10° NNE
STARLINK-1241 4.3 20:23:54 10° WNW 20:27:04 51° WNW 20:27:04 51° WNW
Cosmos 2322 Rocket 4.5 20:26:15 10° N 20:28:37 12° NNE 20:30:45 10° ENE
Cosmos 1812 Rocket 4.2 20:29:45 49° W 20:30:09 51° WNW 20:34:24 10° N
Cosmos 1656 3.5 20:24:54 10° NNW 20:30:37 85° ENE 20:30:56 79° SE
Cosmos 1980 Rocket 3.2 20:27:15 10° NNW 20:32:18 33° NE 20:32:34 33° ENE
Cosmos 1892 3.8 20:28:59 10° NNW 20:32:00 44° NW 20:32:00 44° NW
SPOT 5 3.1 20:34:13 55° N 20:34:13 55° N 20:37:40 10° NNW
Terra 2.2 20:42:27 57° NNE 20:42:27 57° NNE 20:46:22 10° N
Cosmos 1825 4.0 20:39:07 10° N 20:41:04 29° N 20:41:04 29° N
ATLAS 5 CENTAUR R/B 3.7 20:41:01 10° W 20:44:45 27° NNW 20:48:55 10° NNE
Nadezhda 3 Rocket 3.9 20:50:21 78° ESE 20:50:24 78° E 20:56:42 10° N
Cosmos 2151 4.1 20:47:00 10° NNW 20:49:51 41° NNW 20:49:51 41° NNW
SPOT 1/Viking Rocket 4.2 20:52:37 45° WSW 20:52:57 46° W 20:58:00 10° NNW
RESURS DK-1 3.8 20:50:44 10° NNW 20:53:17 36° NW 20:53:17 36° NW
Cosmos 1741 Rocket 4.4 20:54:58 58° W 20:55:29 61° WNW 21:00:47 10° NNE
Cosmos 2278 4.0 20:53:56 10° NNW 20:58:59 57° NNE 20:58:59 57° NNE
SL-4 R/B 4.5 20:57:25 10° WNW 20:58:16 16° WNW 20:58:16 16° WNW
Cosmos 2082 Rocket 3.8 21:03:59 23° NE 21:03:59 23° NE 21:06:14 10° NE
Cosmos 2208 Rocket 4.3 20:56:24 10° NNW 21:00:47 62° NW 21:00:47 62° NW
Cosmos 1833 Rocket 3.5 21:13:44 43° NNE 21:13:44 43° NNE 21:17:28 10° NNE
BREEZE M DEB (TANK) 4.1 21:14:04 10° W 21:18:48 81° N 21:36:54 10° E
Cosmos 1821 Rocket 4.3 21:14:08 10° NNW 21:20:24 61° W 21:20:35 61° W
Cosmos 540 Rocket 4.3 21:15:28 10° NNW 21:19:20 47° NW 21:19:20 47° NW
COSMOS 2406 3.7 21:21:00 54° WNW 21:21:19 55° WNW 21:26:57 10° NNE
Meteor 2-10 Rocket 4.4 21:23:20 46° WNW 21:23:20 46° WNW 21:28:22 10° N
USA 234 3.6 21:18:02 10° NE 21:24:30 64° NNW 21:30:56 10° WSW
Cosmos 1934 Rocket 4.1 21:18:59 10° N 21:24:38 73° NNW 21:24:38 73° NNW
Cosmos 1605 Rocket 4.3 21:33:32 10° N 21:38:36 62° N 21:38:36 62° N
CZ-4C R/B 2.8 21:34:53 10° NW 21:41:59 88° N 21:41:59 88° N
Cosmos 1697 Rocket 3.8 21:41:49 10° NW 21:45:47 37° WNW 21:45:47 37° WNW
Mayak 1.2 21:46:16 10° N 21:47:46 21° N 21:47:46 21° N
ATLAS CENTAUR R/B 4.3 21:52:42 10° NW 21:52:56 11° NW 21:52:56 11° NW
SL-16 R/B 3.3 22:00:11 10° NNW 22:04:14 40° NNE 22:04:14 40° NNE
Cosmos 2360 Rocket 3.8 22:04:14 10° N 22:08:30 27° NE 22:08:30 27° NE
Cosmos 2322 Rocket 3.4 22:08:39 10° NNW 22:12:34 39° NNE 22:12:34 39° NNE
Cosmos 1980 Rocket 3.6 22:11:07 10° NW 22:14:20 32° WNW 22:14:20 32° WNW
Terra 4.4 22:21:20 13° WNW 22:21:20 13° WNW 22:22:29 10° NW
Cosmos 2333 Rocket 4.4 22:20:07 10° N 22:23:50 18° NE 22:25:05 16° NE
Cosmos 2082 Rocket 3.6 22:45:48 33° NW 22:45:48 33° NW 22:50:15 10° NNE
USA 234 4.4 23:00:57 10° ENE 23:06:54 39° N 23:12:50 10° WNW
Cosmos 2219 Rocket 3.8 23:02:42 10° N 23:07:20 28° NE 23:07:20 28° NE
COSMOS 2428 4.0 23:23:21 10° NNW 23:28:04 36° NE 23:28:04 36° NE
SJ 16-02 4.1 23:37:59 13° NE 23:37:59 13° NE 23:38:41 10° NE
Resurs 1-4 Rocket 4.1 23:35:13 10° NE 23:37:53 20° ENE 23:37:53 20° ENE
SL-16 R/B 4.4 23:44:46 10° NW 23:46:04 16° NW 23:46:04 16° NW
Cosmos 2360 Rocket 3.9 23:47:53 10° NNW 23:50:15 26° NW 23:50:15 26° NW
